星链-1423 (STARLINK-1423 )

导读

STARLINK-1423是美国太空探索技术公司(SpaceX)星链(Starlink)卫星互联网星座中的一颗卫星,于2020年6月4日发射入轨,属于星链项目早期组网卫星,承担低轨互联网通信服务任务,助力实现全球覆盖的高速卫星互联网接入,推进星链星座的部署与运营。

基本信息
目录编号:
45710
目录名称:
STARLINK-1423
国际标识:
2020-035BF
轨道中心:
EARTH
卫星名称:
星链-1423
卫星全名:
星链-1423 (STARLINK-1423 )
卫星状态:
在轨 (已飞行2205 天)
发射日期:
2020-06-04 UTC
国别 :
美国 (US)
星等 :
--
轨道信息
数据来源 国际轨道数据 AOE轨道数据
星历时间 2026-06-18T19:50:37+0800
10小时前
查看轨道信息
2026-06-15T07:00:00+0800
3天前
查看轨道信息
半长轴 6735.888km 6736.884km
偏心率 0.0004304 0.0004489
轨道倾角 53.042° 53.041°
近地点辐角 102.266° 93.670°
升交点赤经 248.736° 266.224°
平近点角 257.884° 71.225°
近地点 354.851km 355.722km
远地点 360.651km 361.772km
周期 91.696分钟 91.717分钟
每日圈数 15.704008 15.700526
详细信息
固有亮度:
5
最大亮度:
2.5
卫星平台:
Starlink V1.0
覆盖范围:
全球
运营商:
太空探索技术公司
运营商所在国:
美国
制造商(研发单位):
太空探索技术公司
制造商所在国:
美国
使用方式:
暂无
卫星简介
星链(Starlink)计划是由太空探索技术公司(SpaceX)提出的一个巨型低轨卫星互联网星座项目,计划在2019年至2024年间在太空搭建由约1.2万颗卫星组成的“星链”网络,其中1584颗将部署在地球上空550千米处的近地轨道,并从2020年开始工作。该卫星仍在工作。
2D轨道图
3D轨道图
轨道高度分析图
轨道倾角分析图
轨道综合分析图
查看轨道综合分析图